SDM5863 HESH-URSS

Flight info

Callsign SDM5863
Flight time N/A
Altitude 36000
Route KUPTI L677 CVO A16 RASDA M855 DASNI/N0460F380 M855 TOMBI UM855 AYT UW77 BAG/N0462F370 UT61 SIN UW96 ODIRA/K0859F370 G487 DIRUN
Aircraft B738/M-SDE2E3FGHIRWXY/LB1

Departure

Time 2026-05-07 15:14
Airport Sharm El Sheikh International Airport (HESH)

Arrival

Time N/A
Airport Sochi International Airport (URSS)
Time Latitude Longitude Altitude Speed Heading
2026-05-07 14:40 27.98074 34.38985 171 ft 0 kts 133°
2026-05-07 15:05 27.98086 34.38973 171 ft 4 kts 143°
2026-05-07 15:06 27.98102 34.38960 171 ft 4 kts 172°
2026-05-07 15:06 27.98120 34.38968 171 ft 3 kts 224°
2026-05-07 15:06 27.98139 34.38988 171 ft 3 kts 223°
2026-05-07 15:06 27.98141 34.38990 171 ft 0 kts 223°
2026-05-07 15:08 27.98137 34.38986 171 ft 2 kts 223°
2026-05-07 15:09 27.98111 34.38959 171 ft 8 kts 223°
2026-05-07 15:09 27.98054 34.38900 171 ft 14 kts 223°
2026-05-07 15:09 27.97978 34.38802 171 ft 19 kts 225°
2026-05-07 15:09 27.97869 34.38689 171 ft 24 kts 223°
2026-05-07 15:10 27.97738 34.38552 171 ft 27 kts 222°
2026-05-07 15:10 27.97607 34.38415 171 ft 15 kts 222°
2026-05-07 15:10 27.97527 34.38441 171 ft 13 kts 131°
2026-05-07 15:10 27.97466 34.38515 171 ft 13 kts 133°
2026-05-07 15:11 27.97393 34.38515 171 ft 13 kts 221°
2026-05-07 15:11 27.97324 34.38443 171 ft 14 kts 223°
2026-05-07 15:11 27.97251 34.38368 171 ft 14 kts 222°
2026-05-07 15:11 27.97182 34.38296 171 ft 13 kts 223°
2026-05-07 15:12 27.97115 34.38226 171 ft 13 kts 223°
2026-05-07 15:12 27.97050 34.38159 171 ft 13 kts 223°
2026-05-07 15:12 27.96975 34.38138 172 ft 12 kts 146°
2026-05-07 15:12 27.96916 34.38206 172 ft 12 kts 133°
2026-05-07 15:13 27.96883 34.38271 172 ft 9 kts 88°
2026-05-07 15:13 27.96923 34.38329 172 ft 11 kts 42°
2026-05-07 15:13 27.97118 34.38531 174 ft 78 kts 43°
2026-05-07 15:13 27.97716 34.39154 173 ft 153 kts 43°
2026-05-07 15:14 27.98584 34.40075 739 ft 174 kts 43°
2026-05-07 15:14 27.99518 34.40855 1928 ft 167 kts 19°
2026-05-07 15:14 28.00710 34.40983 2589 ft 182 kts
2026-05-07 15:14 28.01924 34.41684 2858 ft 212 kts 34°
2026-05-07 15:15 28.03264 34.42607 3063 ft 238 kts 28°
2026-05-07 15:15 28.04802 34.43535 3411 ft 261 kts 27°
2026-05-07 15:15 28.06404 34.44483 4367 ft 258 kts 27°
2026-05-07 15:15 28.07997 34.45424 5348 ft 254 kts 26°
2026-05-07 15:16 28.09561 34.46347 6263 ft 258 kts 26°
2026-05-07 15:16 28.11165 34.47295 7025 ft 261 kts 26°
2026-05-07 15:16 28.12837 34.48192 7567 ft 274 kts 15°
2026-05-07 15:16 28.14758 34.48418 8180 ft 282 kts 360°
2026-05-07 15:17 28.16716 34.48435 8876 ft 288 kts 359°
2026-05-07 15:17 28.18732 34.48455 9640 ft 292 kts 359°
2026-05-07 15:17 28.20782 34.48411 10314 ft 298 kts 350°
2026-05-07 15:17 28.22756 34.47538 10533 ft 318 kts 321°
2026-05-07 15:18 28.24211 34.45577 10729 ft 337 kts 298°
2026-05-07 15:18 28.25295 34.43128 10891 ft 358 kts 295°
2026-05-07 15:18 28.26380 34.40500 11064 ft 376 kts 294°
2026-05-07 15:18 28.27500 34.37761 11437 ft 385 kts 294°
2026-05-07 15:19 28.28638 34.35000 12004 ft 387 kts 294°
2026-05-07 15:19 28.29795 34.32222 12551 ft 391 kts 295°
2026-05-07 15:19 28.30969 34.29428 13152 ft 393 kts 295°
2026-05-07 15:19 28.32156 34.26617 13746 ft 395 kts 295°
2026-05-07 15:20 28.33341 34.23819 14470 ft 392 kts 295°
2026-05-07 15:20 28.34532 34.21006 14820 ft 401 kts 295°
2026-05-07 15:20 28.35749 34.18130 15236 ft 406 kts 295°
2026-05-07 15:20 28.36960 34.15266 15735 ft 409 kts 295°
2026-05-07 15:21 28.38194 34.12345 16236 ft 411 kts 295°
2026-05-07 15:21 28.39431 34.09414 16755 ft 413 kts 295°
2026-05-07 15:21 28.40680 34.06452 17188 ft 417 kts 295°
2026-05-07 15:21 28.41937 34.03469 17720 ft 419 kts 295°
2026-05-07 15:22 28.43199 34.00467 18181 ft 422 kts 295°
2026-05-07 15:22 28.44468 33.97447 18596 ft 424 kts 295°
2026-05-07 15:22 28.45740 33.94415 19004 ft 427 kts 295°
2026-05-07 15:22 28.47002 33.91402 19780 ft 418 kts 295°
2026-05-07 15:23 28.48253 33.88420 20320 ft 419 kts 295°
2026-05-07 15:23 28.49521 33.85393 20417 ft 430 kts 295°
2026-05-07 15:23 28.50817 33.82298 20712 ft 434 kts 295°
2026-05-07 15:23 28.52113 33.79197 21274 ft 432 kts 295°
2026-05-07 15:24 28.53399 33.76120 21815 ft 431 kts 296°
2026-05-07 15:24 28.54693 33.73020 22194 ft 434 kts 296°
2026-05-07 15:24 28.55990 33.69912 22463 ft 440 kts 295°
2026-05-07 15:24 28.57306 33.66753 22798 ft 442 kts 296°
2026-05-07 15:25 28.58626 33.63583 23100 ft 446 kts 296°
2026-05-07 15:25 28.59955 33.60390 23580 ft 444 kts 296°
2026-05-07 15:25 28.61272 33.57222 24020 ft 443 kts 296°
2026-05-07 15:25 28.62606 33.54029 24108 ft 451 kts 297°
2026-05-07 15:26 28.64267 33.50969 24164 ft 459 kts 307°
2026-05-07 15:26 28.66268 33.48128 24445 ft 459 kts 310°
2026-05-07 15:26 28.68282 33.45402 24975 ft 454 kts 310°
2026-05-07 15:26 28.70338 33.42630 25391 ft 453 kts 310°
2026-05-07 15:27 28.72341 33.39902 25587 ft 457 kts 310°
2026-05-07 15:27 28.74396 33.37063 25803 ft 460 kts 309°
2026-05-07 15:27 28.76398 33.34264 26085 ft 460 kts 309°
2026-05-07 15:27 28.78405 33.31439 26516 ft 457 kts 309°
2026-05-07 15:28 28.80401 33.28618 26787 ft 459 kts 309°
2026-05-07 15:28 28.82415 33.25765 26942 ft 462 kts 309°
2026-05-07 15:28 28.84417 33.22923 27401 ft 459 kts 309°
2026-05-07 15:28 28.86426 33.20071 27536 ft 464 kts 309°
2026-05-07 15:29 28.88434 33.17219 28160 ft 455 kts 309°
2026-05-07 15:29 28.90397 33.14430 28800 ft 450 kts 309°
2026-05-07 15:29 28.92363 33.11636 28981 ft 454 kts 309°
2026-05-07 15:29 28.94342 33.08822 29298 ft 453 kts 309°
2026-05-07 15:30 28.96311 33.06020 29809 ft 450 kts 309°
2026-05-07 15:30 28.98260 33.03244 30220 ft 448 kts 309°
2026-05-07 15:30 29.00208 33.00468 30507 ft 448 kts 309°
2026-05-07 15:30 29.02155 32.97691 30781 ft 448 kts 309°
2026-05-07 15:31 29.04104 32.94910 31079 ft 448 kts 309°
2026-05-07 15:31 29.06047 32.92136 31395 ft 447 kts 309°
2026-05-07 15:31 29.07983 32.89368 31723 ft 445 kts 309°
2026-05-07 15:31 29.09912 32.86610 32143 ft 441 kts 309°
2026-05-07 15:32 29.11816 32.83885 32556 ft 438 kts 309°
2026-05-07 15:32 29.13078 32.82077 32722 ft 439 kts 309°
2026-05-07 15:32 29.15631 32.78419 32987 ft 441 kts 309°
2026-05-07 15:32 29.16896 32.76604 33186 ft 440 kts 309°
2026-05-07 15:33 29.18799 32.73873 33531 ft 438 kts 309°
2026-05-07 15:33 29.20696 32.71149 33847 ft 437 kts 309°
2026-05-07 15:33 29.22586 32.68431 34090 ft 437 kts 309°
2026-05-07 15:33 29.24477 32.65711 34317 ft 436 kts 309°
2026-05-07 15:34 29.26366 32.62994 34551 ft 436 kts 309°
2026-05-07 15:34 29.28251 32.60282 34816 ft 434 kts 309°
2026-05-07 15:34 29.30116 32.57586 35159 ft 430 kts 309°
2026-05-07 15:34 29.31969 32.54892 35412 ft 429 kts 309°
2026-05-07 15:35 29.33817 32.52200 35578 ft 431 kts 309°
2026-05-07 15:35 29.35669 32.49498 35744 ft 431 kts 309°
2026-05-07 15:35 29.37519 32.46795 35969 ft 430 kts 309°
2026-05-07 15:35 29.39374 32.44087 36010 ft 433 kts 309°
2026-05-07 15:36 29.43089 32.38654 36029 ft 431 kts 309°
2026-05-07 15:36 29.46773 32.33261 36051 ft 428 kts 309°
2026-05-07 15:37 29.48597 32.30601 35941 ft 429 kts 310°
2026-05-07 15:37 29.50453 32.27942 36013 ft 426 kts 309°
2026-05-07 15:37 29.54079 32.22601 36041 ft 423 kts 309°
2026-05-07 15:38 29.57687 32.17258 36048 ft 423 kts 309°
2026-05-07 15:38 29.61298 32.11930 36055 ft 422 kts 309°
2026-05-07 15:39 29.64914 32.06601 36052 ft 423 kts 310°
2026-05-07 15:39 29.68533 32.01261 36050 ft 423 kts 310°
2026-05-07 15:40 29.72147 31.95919 36064 ft 423 kts 310°
2026-05-07 15:40 29.75761 31.90570 36061 ft 423 kts 310°
2026-05-07 15:41 29.79369 31.85203 36053 ft 424 kts 309°
2026-05-07 15:41 29.82890 31.79738 36051 ft 425 kts 309°
2026-05-07 15:42 29.86389 31.74266 36048 ft 423 kts 309°
2026-05-07 15:42 29.89878 31.68834 36045 ft 421 kts 309°
2026-05-07 15:43 29.93341 31.63453 36054 ft 420 kts 309°
2026-05-07 15:43 29.96827 31.58057 36050 ft 419 kts 309°
2026-05-07 15:44 30.00306 31.52658 36048 ft 419 kts 309°
2026-05-07 15:44 30.03761 31.47279 36046 ft 415 kts 310°
2026-05-07 15:45 30.07284 31.42042 36026 ft 408 kts 320°
2026-05-07 15:45 30.12008 31.38610 36049 ft 401 kts 338°
2026-05-07 15:46 30.17438 31.37211 36052 ft 402 kts 350°
2026-05-07 15:46 30.20207 31.36746 36053 ft 402 kts 350°
2026-05-07 15:47 30.25751 31.35792 36062 ft 404 kts 350°
2026-05-07 15:47 30.31282 31.34800 36066 ft 406 kts 349°
2026-05-07 15:48 30.36871 31.33781 36065 ft 407 kts 349°
2026-05-07 15:48 30.42480 31.32756 36064 ft 409 kts 349°
2026-05-07 15:49 30.48122 31.31727 36072 ft 411 kts 349°
2026-05-07 15:49 30.53782 31.30689 36076 ft 412 kts 349°
2026-05-07 15:50 30.59460 31.29641 36079 ft 413 kts 349°
2026-05-07 15:50 30.65145 31.28590 36082 ft 413 kts 349°
2026-05-07 15:51 30.70826 31.27538 36076 ft 414 kts 349°
2026-05-07 15:51 30.76479 31.26490 36083 ft 414 kts 349°
2026-05-07 15:52 30.82170 31.25433 36088 ft 414 kts 349°
2026-05-07 15:52 30.87852 31.24377 36079 ft 413 kts 349°
2026-05-07 15:53 30.93522 31.23323 36083 ft 411 kts 349°
2026-05-07 15:53 30.99165 31.22271 36091 ft 409 kts 349°
2026-05-07 15:54 31.04776 31.21224 36098 ft 408 kts 349°
2026-05-07 15:54 31.10377 31.20177 36100 ft 407 kts 349°
2026-05-07 15:55 31.15965 31.19130 36112 ft 406 kts 349°
2026-05-07 15:55 31.21551 31.18083 36108 ft 407 kts 349°
2026-05-07 15:56 31.27110 31.17048 36106 ft 407 kts 349°
2026-05-07 15:56 31.32707 31.16026 36106 ft 407 kts 349°
2026-05-07 15:57 31.38304 31.14999 36111 ft 407 kts 349°
2026-05-07 15:57 31.43906 31.13966 36118 ft 408 kts 349°
2026-05-07 15:58 31.49513 31.12930 36116 ft 408 kts 349°
2026-05-07 15:58 31.55147 31.11987 36115 ft 409 kts 352°
2026-05-07 15:59 31.60825 31.11382 36117 ft 410 kts 353°
2026-05-07 15:59 31.66514 31.10815 36135 ft 410 kts 353°
2026-05-07 16:00 31.72209 31.10215 36126 ft 411 kts 352°
2026-05-07 16:00 31.77868 31.09601 36123 ft 411 kts 352°
2026-05-07 16:01 31.83578 31.08977 36122 ft 411 kts 352°
2026-05-07 16:01 31.89285 31.08352 36122 ft 412 kts 352°
2026-05-07 16:02 31.94989 31.07727 36126 ft 412 kts 352°
2026-05-07 16:02 32.00696 31.07101 36126 ft 412 kts 352°
2026-05-07 16:03 32.06408 31.06478 36127 ft 412 kts 352°
2026-05-07 16:03 32.12116 31.05857 36129 ft 412 kts 352°
2026-05-07 16:04 32.17834 31.05236 36131 ft 412 kts 353°
2026-05-07 16:04 32.23516 31.04622 36127 ft 413 kts 353°
2026-05-07 16:05 32.29237 31.03995 36129 ft 413 kts 352°
2026-05-07 16:05 32.34969 31.03363 36128 ft 413 kts 352°
2026-05-07 16:06 32.40698 31.02731 36142 ft 413 kts 352°
2026-05-07 16:06 32.46435 31.02097 36132 ft 414 kts 352°
2026-05-07 16:07 32.52175 31.01463 36127 ft 414 kts 352°
2026-05-07 16:07 32.57875 31.00831 36137 ft 414 kts 352°
2026-05-07 16:08 32.63618 31.00195 36139 ft 415 kts 352°
2026-05-07 16:08 32.69370 30.99556 36128 ft 415 kts 352°
2026-05-07 16:09 32.75119 30.98916 36123 ft 415 kts 352°
2026-05-07 16:09 32.80877 30.98275 36134 ft 415 kts 352°
2026-05-07 16:10 32.86641 30.97631 36147 ft 416 kts 352°
2026-05-07 16:10 32.92412 30.96986 36133 ft 416 kts 352°
2026-05-07 16:11 32.98137 30.96343 36131 ft 417 kts 352°
2026-05-07 16:11 33.03913 30.95692 36142 ft 417 kts 352°
2026-05-07 16:12 33.09687 30.95048 36134 ft 416 kts 352°
2026-05-07 16:12 33.15496 30.94705 36129 ft 418 kts 355°
2026-05-07 16:13 33.21318 30.94550 36133 ft 418 kts 356°
2026-05-07 16:13 33.27140 30.94385 36133 ft 418 kts 355°
2026-05-07 16:14 33.32959 30.94184 36141 ft 418 kts 355°
2026-05-07 16:14 33.38783 30.93967 36133 ft 419 kts 355°
2026-05-07 16:15 33.44573 30.93748 36133 ft 419 kts 355°
2026-05-07 16:15 33.50407 30.93528 36133 ft 419 kts 355°
2026-05-07 16:16 33.56241 30.93307 36151 ft 420 kts 355°
2026-05-07 16:16 33.62091 30.93086 36138 ft 421 kts 355°
2026-05-07 16:17 33.67947 30.92864 36133 ft 421 kts 355°
2026-05-07 16:17 33.73801 30.92641 36134 ft 421 kts 355°
2026-05-07 16:18 33.79663 30.92417 36143 ft 421 kts 355°
2026-05-07 16:18 33.85535 30.92190 36135 ft 422 kts 355°
2026-05-07 16:19 33.91419 30.91961 36134 ft 423 kts 355°
2026-05-07 16:19 33.97306 30.91726 36133 ft 423 kts 355°
2026-05-07 16:20 34.02195 30.91465 36142 ft 423 kts 354°
2026-05-07 16:20 34.09046 30.91072 36134 ft 424 kts 354°
2026-05-07 16:21 34.14935 30.90738 36134 ft 424 kts 354°
2026-05-07 16:21 34.19832 30.90461 36133 ft 424 kts 354°
2026-05-07 16:22 34.25736 30.90137 36137 ft 425 kts 354°
2026-05-07 16:22 34.28688 30.89989 36247 ft 425 kts 354°
2026-05-07 16:22 34.31642 30.89847 36447 ft 424 kts 355°
2026-05-07 16:22 34.34583 30.89705 36659 ft 422 kts 354°
2026-05-07 16:23 34.37510 30.89560 36844 ft 421 kts 355°
2026-05-07 16:23 34.40439 30.89413 36981 ft 422 kts 354°
2026-05-07 16:23 34.43374 30.89263 37119 ft 422 kts 354°
2026-05-07 16:23 34.46309 30.89111 37291 ft 421 kts 355°
2026-05-07 16:24 34.49237 30.88960 37420 ft 422 kts 354°
2026-05-07 16:24 34.52175 30.88806 37536 ft 422 kts 354°
2026-05-07 16:24 34.55109 30.88652 37697 ft 422 kts 354°
2026-05-07 16:24 34.58036 30.88501 37850 ft 421 kts 354°
2026-05-07 16:25 34.60963 30.88353 37986 ft 421 kts 354°
2026-05-07 16:25 34.63847 30.88221 38100 ft 420 kts 355°
2026-05-07 16:25 34.66782 30.88126 38121 ft 421 kts 355°
2026-05-07 16:26 34.72636 30.87968 38135 ft 421 kts 355°
2026-05-07 16:26 34.78497 30.87797 38132 ft 420 kts 355°
2026-05-07 16:27 34.84350 30.87612 38131 ft 420 kts 355°
2026-05-07 16:27 34.90195 30.87423 38130 ft 420 kts 355°
2026-05-07 16:28 34.96048 30.87232 38143 ft 421 kts 355°
2026-05-07 16:28 35.01901 30.87040 38131 ft 421 kts 355°
2026-05-07 16:29 35.07763 30.86846 38131 ft 421 kts 355°
2026-05-07 16:29 35.13622 30.86650 38128 ft 421 kts 355°
2026-05-07 16:30 35.19454 30.86461 38124 ft 422 kts 355°
2026-05-07 16:30 35.25322 30.86273 38124 ft 422 kts 355°
2026-05-07 16:31 35.31196 30.86078 38134 ft 422 kts 355°
2026-05-07 16:31 35.37064 30.85876 38139 ft 422 kts 355°
2026-05-07 16:32 35.42940 30.85673 38124 ft 423 kts 355°
2026-05-07 16:32 35.48827 30.85467 38124 ft 423 kts 355°
2026-05-07 16:33 35.54711 30.85257 38124 ft 423 kts 355°
2026-05-07 16:33 35.60597 30.85053 38129 ft 423 kts 355°
2026-05-07 16:34 35.66488 30.84772 38129 ft 423 kts 354°
2026-05-07 16:34 35.72330 30.84402 38121 ft 423 kts 353°
2026-05-07 16:35 35.78220 30.84026 38116 ft 423 kts 354°
2026-05-07 16:35 35.84110 30.83659 38120 ft 424 kts 353°
2026-05-07 16:36 35.90016 30.83293 38115 ft 424 kts 354°
2026-05-07 16:36 35.95918 30.82923 38115 ft 425 kts 354°
2026-05-07 16:37 36.01827 30.82555 38113 ft 425 kts 354°
2026-05-07 16:37 36.07742 30.82245 38113 ft 426 kts 355°
2026-05-07 16:38 36.13669 30.82091 38109 ft 426 kts 355°
2026-05-07 16:38 36.19565 30.81933 38103 ft 426 kts 355°
2026-05-07 16:39 36.25499 30.81746 38117 ft 426 kts 355°
2026-05-07 16:39 36.31431 30.81550 38103 ft 427 kts 355°
2026-05-07 16:40 36.37372 30.81351 38105 ft 427 kts 355°
2026-05-07 16:40 36.43310 30.81159 38098 ft 427 kts 355°
2026-05-07 16:41 36.49217 30.80962 38097 ft 427 kts 355°
2026-05-07 16:41 36.55159 30.80754 38099 ft 427 kts 355°
2026-05-07 16:42 36.61106 30.80541 38105 ft 427 kts 355°
2026-05-07 16:42 36.67053 30.80326 38108 ft 427 kts 355°
2026-05-07 16:43 36.72999 30.80110 38100 ft 427 kts 355°
2026-05-07 16:43 36.78946 30.79891 38104 ft 427 kts 355°
2026-05-07 16:44 36.84888 30.79673 38104 ft 427 kts 355°
2026-05-07 16:44 36.90842 30.79989 38103 ft 434 kts
2026-05-07 16:45 36.96641 30.82326 38101 ft 445 kts 22°
2026-05-07 16:45 37.02070 30.85993 38101 ft 447 kts 24°
2026-05-07 16:46 37.07513 30.89759 38124 ft 447 kts 24°
2026-05-07 16:46 37.12975 30.93478 38133 ft 447 kts 24°
2026-05-07 16:47 37.18454 30.97171 38135 ft 446 kts 23°
2026-05-07 16:47 37.23917 31.00862 38160 ft 446 kts 23°
2026-05-07 16:48 37.29374 31.04553 38164 ft 445 kts 23°
2026-05-07 16:48 37.34822 31.08249 38167 ft 445 kts 23°
2026-05-07 16:49 37.40336 31.11741 38158 ft 442 kts 20°
2026-05-07 16:49 37.45868 31.14983 38174 ft 442 kts 20°
2026-05-07 16:50 37.51427 31.18251 38202 ft 441 kts 20°
2026-05-07 16:50 37.57009 31.21512 38198 ft 444 kts 20°
2026-05-07 16:51 37.62623 31.24834 38223 ft 447 kts 21°
2026-05-07 16:51 37.68253 31.28224 38195 ft 448 kts 20°
2026-05-07 16:52 37.73904 31.31556 38184 ft 448 kts 20°
2026-05-07 16:52 37.79539 31.34903 38202 ft 447 kts 21°
2026-05-07 16:53 37.85302 31.38343 38204 ft 445 kts 21°
2026-05-07 16:53 37.89653 31.40946 38202 ft 445 kts 20°
2026-05-07 16:54 37.96036 31.44769 38210 ft 444 kts 21°
2026-05-07 16:54 38.01621 31.48118 38204 ft 444 kts 20°
2026-05-07 16:55 38.07202 31.51466 38203 ft 444 kts 20°
2026-05-07 16:55 38.12777 31.54831 38210 ft 443 kts 21°
2026-05-07 16:56 38.18294 31.58291 38203 ft 442 kts 22°
2026-05-07 16:56 38.21035 31.60037 38198 ft 441 kts 22°